Time,TemperatureF,DewpointF,PressureIn,WindDirection,WindDirectionDegrees,WindSpeedMPH,WindSpeedGustMPH,Humidity,HourlyPrecipIn,Conditions,Clouds,dailyrainin,SoftwareType,DateUTC
2013-01-31 00:03:00,69.0,69.0,29.94,South,179,4.0,8.0,99,99.99,,,-99.99,,2013-01-31 05:03:00,
2013-01-31 00:11:00,69.0,69.0,29.94,South,179,4.0,8.0,99,99.99,,,-99.99,,2013-01-31 05:11:00,
2013-01-31 00:22:00,70.0,70.0,29.95,SW,232,4.0,11.0,99,99.99,,,-99.99,,2013-01-31 05:22:00,
2013-01-31 00:32:00,70.0,70.0,29.95,SW,232,4.0,11.0,99,99.99,,,-99.99,,2013-01-31 05:32:00,
2013-01-31 00:42:00,70.0,70.0,29.94,WSW,252,5.0,9.0,100,99.99,,,-99.99,,2013-01-31 05:42:00,
2013-01-31 00:52:00,70.0,70.0,29.94,WSW,252,5.0,9.0,100,99.99,,,-99.99,,2013-01-31 05:52:00,
2013-01-31 01:01:00,70.0,70.0,29.94,WSW,252,5.0,9.0,100,99.99,,,-99.99,,2013-01-31 06:01:00,
2013-01-31 01:10:00,70.0,70.0,29.94,WSW,252,5.0,9.0,100,99.99,,,-99.99,,2013-01-31 06:10:00,
2013-01-31 09:03:00,58.0,58.0,30.12,North,10,6.0,13.0,100,99.99,,,-99.99,,2013-01-31 14:03:00,
2013-01-31 09:11:00,58.0,58.0,30.12,North,10,6.0,13.0,100,99.99,,,-99.99,,2013-01-31 14:11:00,
2013-01-31 09:22:00,59.0,58.0,30.12,West,281,7.0,14.0,95,99.99,,,-99.99,,2013-01-31 14:22:00,
2013-01-31 09:32:00,59.0,56.0,30.12,North,10,6.0,11.0,90,99.99,,,-99.99,,2013-01-31 14:32:00,
2013-01-31 09:42:00,59.0,56.0,30.12,North,10,6.0,11.0,90,99.99,,,-99.99,,2013-01-31 14:42:00,
2013-01-31 09:52:00,60.0,55.0,30.13,NNE,24,7.0,11.0,84,99.99,,,-99.99,,2013-01-31 14:52:00,
2013-01-31 10:03:00,60.0,53.0,30.14,NNE,20,5.0,9.0,79,99.99,,,-99.99,,2013-01-31 15:03:00,
2013-01-31 10:12:00,60.0,52.0,30.14,NW,315,6.0,12.0,74,99.99,,,-99.99,,2013-01-31 15:12:00,
2013-01-31 10:22:00,60.0,52.0,30.14,NW,315,6.0,12.0,74,99.99,,,-99.99,,2013-01-31 15:22:00,
2013-01-31 10:32:00,61.0,54.0,30.14,NNE,20,4.0,9.0,77,99.99,,,-99.99,,2013-01-31 15:32:00,
2013-01-31 10:42:00,61.0,54.0,30.14,NNE,20,4.0,9.0,77,99.99,,,-99.99,,2013-01-31 15:42:00,
2013-01-31 10:52:00,61.0,52.0,30.15,NNW,329,5.0,10.0,71,99.99,,,-99.99,,2013-01-31 15:52:00,
2013-01-31 11:03:00,62.0,49.0,30.15,NW,316,6.0,12.0,62,99.99,,,-99.99,,2013-01-31 16:03:00,
2013-01-31 11:12:00,62.0,46.0,30.15,NW,323,6.0,10.0,55,99.99,,,-99.99,,2013-01-31 16:12:00,
2013-01-31 11:22:00,62.0,46.0,30.15,NW,323,6.0,10.0,55,99.99,,,-99.99,,2013-01-31 16:22:00,
2013-01-31 11:33:00,62.0,45.0,30.15,NNE,14,7.0,13.0,53,99.99,,,-99.99,,2013-01-31 16:33:00,
2013-01-31 11:42:00,62.0,45.0,30.15,NNE,14,7.0,13.0,53,99.99,,,-99.99,,2013-01-31 16:42:00,
2013-01-31 11:52:00,62.0,-99.9,30.15,NNE,18,6.0,11.0,-999,99.99,,,-99.99,,2013-01-31 16:52:00,
2013-01-31 12:03:00,62.0,46.0,30.14,WNW,300,6.0,11.0,56,99.99,,,-99.99,,2013-01-31 17:03:00,
2013-01-31 12:12:00,63.0,41.0,30.14,WNW,301,5.0,10.0,44,99.99,,,-99.99,,2013-01-31 17:12:00,
2013-01-31 12:23:00,63.0,41.0,30.14,WNW,301,5.0,10.0,44,99.99,,,-99.99,,2013-01-31 17:23:00,
2013-01-31 12:32:00,63.0,42.0,30.14,NNE,23,5.0,9.0,46,99.99,,,-99.99,,2013-01-31 17:32:00,
2013-01-31 12:43:00,63.0,42.0,30.14,NNE,23,5.0,9.0,46,99.99,,,-99.99,,2013-01-31 17:43:00,
2013-01-31 12:53:00,62.0,43.0,30.14,NNE,28,5.0,9.0,49,99.99,,,-99.99,,2013-01-31 17:53:00,
2013-01-31 13:03:00,63.0,37.0,30.14,NW,318,7.0,12.0,38,99.99,,,-99.99,,2013-01-31 18:03:00,
2013-01-31 13:12:00,64.0,34.0,30.13,NW,325,7.0,12.0,33,99.99,,,-99.99,,2013-01-31 18:12:00,
2013-01-31 13:22:00,64.0,34.0,30.13,NW,325,7.0,12.0,33,99.99,,,-99.99,,2013-01-31 18:22:00,
2013-01-31 13:32:00,64.0,38.0,30.13,NNE,28,5.0,10.0,38,99.99,,,-99.99,,2013-01-31 18:32:00,
2013-01-31 13:43:00,64.0,38.0,30.13,NNE,28,5.0,10.0,38,99.99,,,-99.99,,2013-01-31 18:43:00,
2013-01-31 13:52:00,65.0,36.0,30.13,NW,322,7.0,13.0,34,99.99,,,-99.99,,2013-01-31 18:52:00,
2013-01-31 14:02:00,65.0,36.0,30.13,WNW,293,9.0,13.0,34,99.99,,,-99.99,,2013-01-31 19:02:00,
2013-01-31 14:12:00,65.0,36.0,30.13,WNW,293,9.0,13.0,34,99.99,,,-99.99,,2013-01-31 19:12:00,
2013-01-31 14:22:00,64.0,37.0,30.13,NE,34,6.0,10.0,36,99.99,,,-99.99,,2013-01-31 19:22:00,
2013-01-31 14:32:00,64.0,36.0,30.12,NE,37,5.0,9.0,35,99.99,,,-99.99,,2013-01-31 19:32:00,
2013-01-31 14:42:00,64.0,36.0,30.12,NE,37,5.0,9.0,35,99.99,,,-99.99,,2013-01-31 19:42:00,
2013-01-31 14:52:00,65.0,35.0,30.12,NNE,17,4.0,9.0,33,99.99,,,-99.99,,2013-01-31 19:52:00,
2013-01-31 15:02:00,65.0,36.0,30.13,NW,304,5.0,10.0,34,99.99,,,-99.99,,2013-01-31 20:02:00,
2013-01-31 15:11:00,65.0,35.0,30.13,NW,323,6.0,12.0,33,99.99,,,-99.99,,2013-01-31 20:11:00,
2013-01-31 15:22:00,65.0,35.0,30.13,NW,323,6.0,12.0,33,99.99,,,-99.99,,2013-01-31 20:22:00,
2013-01-31 15:32:00,65.0,33.0,30.13,NW,314,7.0,13.0,30,99.99,,,-99.99,,2013-01-31 20:32:00,
2013-01-31 15:42:00,65.0,34.0,30.13,NW,304,5.0,9.0,31,99.99,,,-99.99,,2013-01-31 20:42:00,
2013-01-31 15:52:00,65.0,34.0,30.13,NW,304,5.0,9.0,31,99.99,,,-99.99,,2013-01-31 20:52:00,
2013-01-31 16:02:00,65.0,34.0,30.13,NW,304,6.0,12.0,32,99.99,,,-99.99,,2013-01-31 21:02:00,
2013-01-31 16:12:00,64.0,37.0,30.13,NNW,347,5.0,8.0,36,99.99,,,-99.99,,2013-01-31 21:12:00,
2013-01-31 16:22:00,64.0,37.0,30.13,NNW,347,5.0,8.0,36,99.99,,,-99.99,,2013-01-31 21:22:00,
2013-01-31 16:32:00,64.0,33.0,30.14,NNW,328,8.0,15.0,31,99.99,,,-99.99,,2013-01-31 21:32:00,
2013-01-31 16:42:00,64.0,33.0,30.14,NNW,328,8.0,15.0,31,99.99,,,-99.99,,2013-01-31 21:42:00,
2013-01-31 16:52:00,64.0,34.0,30.14,NW,323,6.0,10.0,32,99.99,,,-99.99,,2013-01-31 21:52:00,
2013-01-31 17:03:00,64.0,31.0,30.14,North,352,3.0,8.0,29,99.99,,,-99.99,,2013-01-31 22:03:00,
2013-01-31 17:11:00,64.0,32.0,30.14,NW,311,5.0,10.0,30,99.99,,,-99.99,,2013-01-31 22:11:00,
2013-01-31 17:22:00,64.0,32.0,30.14,NW,311,5.0,10.0,30,99.99,,,-99.99,,2013-01-31 22:22:00,
2013-01-31 17:33:00,63.0,32.0,30.14,NNW,347,4.0,8.0,31,99.99,,,-99.99,,2013-01-31 22:33:00,
2013-01-31 17:42:00,63.0,32.0,30.14,NNW,347,4.0,8.0,31,99.99,,,-99.99,,2013-01-31 22:42:00,
2013-01-31 17:52:00,63.0,33.0,30.14,NNW,346,1.0,6.0,33,99.99,,,-99.99,,2013-01-31 22:52:00,
2013-01-31 18:02:00,61.0,34.0,30.15,NW,319,2.0,5.0,36,99.99,,,-99.99,,2013-01-31 23:02:00,
2013-01-31 18:12:00,61.0,34.0,30.15,NW,319,5.0,7.0,36,99.99,,,-99.99,,2013-01-31 23:12:00,
2013-01-31 18:22:00,61.0,34.0,30.15,NW,319,5.0,7.0,36,99.99,,,-99.99,,2013-01-31 23:22:00,
2013-01-31 18:32:00,60.0,33.0,30.15,WNW,288,5.0,8.0,36,99.99,,,-99.99,,2013-01-31 23:32:00,
2013-01-31 18:42:00,60.0,33.0,30.15,WNW,288,5.0,8.0,36,99.99,,,-99.99,,2013-01-31 23:42:00,
2013-01-31 18:52:00,59.0,33.0,30.16,NW,308,5.0,9.0,38,99.99,,,-99.99,,2013-01-31 23:52:00,
2013-01-31 19:02:00,58.0,-99.9,30.17,NW,323,5.0,9.0,-999,99.99,,,-99.99,,2013-02-01 00:02:00,
2013-01-31 19:11:00,58.0,-99.9,30.17,NW,323,5.0,9.0,-999,99.99,,,-99.99,,2013-02-01 00:11:00,
2013-01-31 19:22:00,57.0,34.0,30.16,NNW,333,1.0,4.0,42,99.99,,,-99.99,,2013-02-01 00:22:00,
2013-01-31 19:32:00,56.0,33.0,30.17,NW,318,5.0,8.0,42,99.99,,,-99.99,,2013-02-01 00:32:00,
2013-01-31 19:42:00,56.0,33.0,30.17,NW,318,5.0,8.0,42,99.99,,,-99.99,,2013-02-01 00:42:00,
2013-01-31 19:52:00,56.0,33.0,30.18,NNW,329,4.0,8.0,42,99.99,,,-99.99,,2013-02-01 00:52:00,
2013-01-31 20:01:00,55.0,33.0,30.19,NW,323,5.0,10.0,44,99.99,,,-99.99,,2013-02-01 01:01:00,
2013-01-31 20:11:00,54.0,34.0,30.20,NNW,345,3.0,8.0,47,99.99,,,-99.99,,2013-02-01 01:11:00,
2013-01-31 20:21:00,54.0,34.0,30.20,NNW,345,3.0,8.0,47,99.99,,,-99.99,,2013-02-01 01:21:00,
2013-01-31 20:32:00,53.0,34.0,30.21,North,359,4.0,8.0,49,99.99,,,-99.99,,2013-02-01 01:32:00,
2013-01-31 20:42:00,53.0,34.0,30.21,North,359,4.0,8.0,49,99.99,,,-99.99,,2013-02-01 01:42:00,
2013-01-31 20:52:00,53.0,35.0,30.21,NW,321,2.0,7.0,50,99.99,,,-99.99,,2013-02-01 01:52:00,
2013-01-31 21:02:00,53.0,36.0,30.22,NW,319,2.0,5.0,52,99.99,,,-99.99,,2013-02-01 02:02:00,
2013-01-31 21:11:00,53.0,36.0,30.22,NW,319,2.0,5.0,52,99.99,,,-99.99,,2013-02-01 02:11:00,
2013-01-31 21:21:00,52.0,36.0,30.22,NNW,335,3.0,7.0,54,99.99,,,-99.99,,2013-02-01 02:21:00,
2013-01-31 21:32:00,51.0,36.0,30.22,NNE,17,2.0,5.0,56,99.99,,,-99.99,,2013-02-01 02:32:00,
2013-01-31 21:42:00,51.0,36.0,30.22,NNE,17,2.0,5.0,56,99.99,,,-99.99,,2013-02-01 02:42:00,
2013-01-31 21:52:00,51.0,37.0,30.22,NW,312,1.0,4.0,58,99.99,,,-99.99,,2013-02-01 02:52:00,
2013-01-31 22:02:00,51.0,38.0,30.23,North,0,0.0,0.0,60,99.99,,,-99.99,,2013-02-01 03:02:00,
2013-01-31 22:12:00,51.0,38.0,30.23,North,0,0.0,0.0,60,99.99,,,-99.99,,2013-02-01 03:12:00,
2013-01-31 22:21:00,50.0,38.0,30.22,NNW,343,2.0,4.0,62,99.99,,,-99.99,,2013-02-01 03:21:00,
2013-01-31 22:33:00,50.0,38.0,30.23,NNW,339,1.0,5.0,64,99.99,,,-99.99,,2013-02-01 03:33:00,
2013-01-31 22:42:00,50.0,38.0,30.23,NNW,339,1.0,5.0,64,99.99,,,-99.99,,2013-02-01 03:42:00,
2013-01-31 22:52:00,50.0,39.0,30.23,NNW,329,0.0,1.0,65,99.99,,,-99.99,,2013-02-01 03:52:00,
2013-01-31 23:02:00,50.0,39.0,30.23,North,0,0.0,0.0,65,99.99,,,-99.99,,2013-02-01 04:02:00,
2013-01-31 23:11:00,49.0,39.0,30.23,North,0,0.0,0.0,67,99.99,,,-99.99,,2013-02-01 04:11:00,
2013-01-31 23:21:00,49.0,39.0,30.23,North,0,0.0,0.0,67,99.99,,,-99.99,,2013-02-01 04:21:00,
2013-01-31 23:32:00,49.0,40.0,30.24,North,0,0.0,0.0,70,99.99,,,-99.99,,2013-02-01 04:32:00,
2013-01-31 23:41:00,49.0,40.0,30.24,North,0,0.0,0.0,70,99.99,,,-99.99,,2013-02-01 04:41:00,
2013-01-31 23:52:00,49.0,40.0,30.24,NNE,20,2.0,7.0,72,99.99,,,-99.99,,2013-02-01 04:52:00,